Wind_Speed
2 3 3 3 3 3 4 4 4 4 3 3 3 2 3 4 5 5 5 5 5 5 5 6 7 7 8 8 8 8 10 11 14 15 17 18 19 20 22 23 25 26 27 29
4 4 4 4 4 4 4 4 4 5 4 4 4 4 4 4 4 5 5 5 5 6 6 6 6 6 6 7 9 9 10 11 13 15 17 19 20 21 21 23 24 26 28 30
4 5 5 5 5 5 5 5 6 6 5 4 4 5 5 5 5 5 5 5 6 7 7 7 7 7 8 8 8 9 10 11 13 14 16 18 19 21 23 24 25 27 29 31
7 7 7 7 7 6 6 6 7 7 6 6 5 5 5 5 5 5 6 6 7 7 7 7 8 8 9 9 9 10 11 12 13 14 15 16 18 20 21 23 25 27 29 31
10 10 9 9 8 8 8 8 8 7 7 7 7 6 6 5 5 5 6 6 7 7 8 8 9 9 9 9 10 11 12 14 15 16 17 17 19 20 21 22 24 25 27 29
12 12 12 11 11 10 10 9 9 9 8 9 9 9 8 7 6 6 6 7 7 8 9 9 10 11 11 11 12 13 14 15 16 17 17 19 20 22 22 24 25 25 26 27
14 15 15 14 14 13 12 12 11 11 11 11 11 11 11 10 10 9 9 9 10 10 11 11 12 13 13 14 14 15 16 16 17 19 19 20 21 22 23 25 26 27 27 27
17 17 17 18 17 16 15 14 13 13 13 13 13 13 13 13 13 13 13 13 13 13 14 14 14 15 15 16 16 17 18 18 19 20 21 22 23 24 26 27 28 29 29 29
18 18 19 18 18 18 17 16 15 15 15 15 14 14 14 14 15 16 16 16 16 16 16 16 16 17 17 18 18 19 20 20 22 23 24 25 26 27 28 29 30 31 31 31
20 20 21 20 19 19 19 18 17 17 16 17 16 17 17 17 17 17 17 18 18 18 18 18 18 19 19 20 21 21 22 23 24 25 26 27 28 29 30 31 32 32 33 33
22 22 24 23 22 22 21 21 20 19 18 18 18 18 18 19 19 20 20 20 20 20 20 21 21 21 22 22 23 24 24 25 26 28 29 30 30 31 32 33 33 34 34 34
24 25 26 25 25 24 23 23 23 22 21 21 21 20 20 20 21 21 22 22 22 23 23 23 23 23 24 24 25 26 27 28 29 30 31 32 32 32 34 35 35 35 35 35
28 28 28 27 28 28 26 25 26 25 24 24 24 24 24 24 24 24 24 24 24 24 25 25 25 26 26 26 28 29 29 30 30 31 32 32 33 34 35 36 37 37 36 36
31 31 30 29 30 30 30 29 29 28 27 27 27 27 27 27 27 27 27 26 26 26 26 26 27 27 28 29 29 31 31 32 33 33 34 35 36 37 37 37 37 37 37 37
33 33 33 32 32 32 32 32 32 32 31 30 29 29 29 29 29 29 28 28 28 28 28 29 29 30 30 31 32 32 33 33 34 35 35 36 37 38 39 39 39 38 38 37
33 34 35 34 34 34 34 34 34 35 34 33 32 31 31 30 30 30 30 30 30 30 30 31 31 32 32 33 34 34 35 35 36 36 37 37 38 39 40 41 40 40 39 38
34 34 35 35 35 35 36 37 37 37 37 36 35 34 33 33 32 32 32 32 32 32 33 33 33 34 34 34 35 36 37 37 38 38 39 39 40 41 41 41 41 40 40 39
34 35 36 36 36 36 37 38 39 39 38 38 38 37 36 36 35 35 35 35 35 35 35 35 36 36 36 36 37 37 38 39 39 40 40 41 42 42 42 42 42 41 40 40
34 34 35 35 36 36 37 37 38 39 39 39 39 39 39 38 38 38 38 37 37 37 37 38 38 38 38 38 39 39 40 40 40 41 41 42 43 43 43 43 42 41 40 40
33 34 34 34 35 36 36 37 38 39 39 39 40 40 40 40 40 40 39 39 39 39 39 39 39 39 39 40 40 40 41 41 42 42 43 43 44 43 43 43 43 42 41 40
34 34 34 34 35 36 36 37 37 38 39 39 40 41 41 41 41 40 40 40 40 40 40 40 40 40 41 41 41 41 41 42 43 43 44 44 44 44 44 44 43 43 42 41
34 34 33 34 35 35 36 36 37 38 38 39 39 40 40 41 40 40 40 41 41 41 41 41 41 41 41 41 41 41 42 43 43 44 44 45 45 45 44 44 44 43 42 41
34 34 34 34 35 36 36 37 37 38 39 39 39 40 40 41 41 41 41 41 41 42 42 42 42 42 42 41 41 42 43 43 44 44 44 44 44 43 43 43 43 42 41 40
35 35 35 35 35 36 37 37 37 38 39 39 39 40 40 40 40 41 41 41 42 42 41 41 42 42 42 42 42 42 42 42 42 43 43 43 42 42 42 41 41 40 40 40
35 35 35 35 36 36 37 37 37 37 38 38 39 40 40 40 40 40 40 40 41 40 40 41 41 41 41 42 42 41 41 42 42 42 41 42 41 41 40 40 39 39 39 39
35 35 35 35 36 36 37 37 37 37 38 38 39 39 40 41 40 40 40 39 39 39 39 40 40 40 41 41 40 40 41 41 41 41 40 40 40 39 39 39 39 38 38 38
34 34 35 35 36 36 36 36 36 36 36 36 37 38 38 39 39 39 39 39 39 38 38 39 39 39 39 39 39 40 40 40 40 40 40 39 38 38 38 38 37 37 37 36
Wind_Direction
336 337 324 312 299 287 289 284 289 296 306 312 302 285 256 254 259 254 245 237 226 230 235 234 232 236 242 250 256 259 260 262 264 265 269 272 276 277 278 277 275 276 278 280
315 320 321 316 298 291 293 296 301 301 298 292 290 279 278 276 269 257 245 243 240 239 243 246 246 251 263 266 265 268 272 276 276 275 277 278 280 281 282 282 281 282 283 285
313 308 308 315 304 295 290 293 294 299 301 294 281 276 273 276 273 257 245 242 247 253 252 254 256 261 264 266 277 279 279 284 287 286 285 284 283 283 285 287 288 289 290 289
296 295 298 300 298 293 289 286 288 287 285 285 280 272 272 269 258 255 250 250 250 253 257 257 259 262 267 270 276 283 284 287 292 295 298 298 295 292 291 293 294 295 295 295
287 285 288 289 289 290 288 284 282 284 279 276 274 271 272 272 261 257 256 256 260 261 262 264 265 268 272 274 278 285 288 290 291 293 295 299 300 299 297 298 299 299 301 300
283 278 282 281 280 281 279 279 275 275 274 272 270 268 269 269 262 259 259 260 264 266 268 268 269 271 274 275 278 283 288 291 292 295 295 298 301 301 300 300 302 303 304 303
277 274 275 276 275 274 271 274 275 274 274 273 272 268 266 266 265 262 261 263 266 267 270 271 273 272 273 275 278 283 286 290 293 295 296 299 302 304 304 304 305 307 307 306
272 273 274 273 272 270 269 269 272 273 272 272 272 268 266 265 266 265 266 267 267 268 271 273 274 273 275 277 280 284 287 290 292 295 297 299 302 304 305 305 306 307 307 306
273 273 272 273 271 268 265 266 266 268 268 270 269 267 266 267 267 267 268 268 269 269 271 272 273 274 276 279 282 285 288 291 294 296 298 300 301 302 304 305 305 304 304 304
272 272 270 268 268 266 264 264 265 266 267 269 268 264 264 267 267 268 268 270 271 270 269 270 272 274 277 280 282 286 289 291 293 295 297 299 300 302 304 305 305 304 302 302
270 269 268 267 266 264 262 261 263 263 265 268 269 267 265 265 266 267 268 270 271 270 270 271 273 275 278 281 283 285 288 291 293 295 296 298 300 301 304 306 306 305 304 305
269 265 265 265 265 264 263 261 261 262 263 265 268 269 268 267 267 267 268 269 270 271 271 272 274 276 278 281 283 285 288 291 294 296 296 297 299 300 303 305 305 305 305 305
266 264 264 264 264 264 263 262 261 261 263 264 266 268 268 268 268 269 269 270 271 272 272 273 275 277 279 281 283 285 288 291 293 295 297 298 299 301 303 305 305 305 304 304
266 265 264 264 264 263 262 261 261 261 262 264 265 266 266 267 267 268 269 270 271 272 273 275 277 278 280 283 284 285 287 290 292 295 297 298 299 300 302 304 304 304 303 303
267 266 264 263 263 263 262 261 260 260 260 262 264 265 265 265 267 267 267 268 269 271 273 275 277 279 281 283 285 286 288 289 292 294 296 298 299 301 302 303 303 302 302 302
269 268 266 265 264 263 263 262 261 260 260 261 263 264 265 265 266 266 268 269 270 271 272 274 276 278 281 283 285 287 289 290 292 294 296 297 299 300 302 303 303 303 302 301
270 270 268 267 266 264 263 262 261 260 259 260 261 262 263 264 265 265 267 268 270 271 272 274 276 278 280 283 285 286 288 290 291 293 294 296 298 299 301 302 302 301 301 300
273 272 271 269 268 266 264 263 262 261 260 260 261 261 263 263 264 265 266 267 269 270 272 274 276 278 280 281 283 285 287 289 291 293 294 296 297 299 300 301 301 300 300 299
273 273 272 270 269 268 265 262 262 262 262 262 261 262 262 263 264 265 266 267 269 271 273 274 276 278 279 281 283 284 286 288 290 292 295 296 297 298 299 299 299 299 298 298
274 273 273 271 269 267 266 263 262 263 263 264 263 262 263 263 263 264 265 267 269 271 273 275 277 278 279 280 282 284 286 288 290 292 294 296 297 298 298 298 298 297 296 296
275 274 273 272 270 268 266 264 263 264 264 265 264 263 263 263 263 263 264 266 268 270 272 275 277 278 279 280 282 284 286 288 290 292 293 295 296 297 297 297 296 296 295 294
276 274 272 271 270 268 267 266 265 265 265 266 266 264 263 262 262 263 264 266 268 270 272 274 276 278 279 281 283 284 286 288 290 292 293 295 296 296 296 296 296 295 294 294
274 273 271 272 271 270 269 269 268 267 267 266 266 265 263 262 262 263 265 266 268 270 272 273 275 277 279 281 283 285 287 289 291 292 293 295 296 296 296 295 295 294 293 293
273 272 272 273 274 273 272 270 270 269 268 267 266 264 263 263 264 264 266 267 268 270 271 273 274 277 279 281 283 285 288 290 292 293 294 294 295 295 296 295 295 295 294 293
272 272 273 274 274 274 274 273 272 271 270 268 266 264 264 264 264 265 266 267 268 269 271 273 275 277 279 281 283 286 287 289 291 293 294 294 295 296 296 296 295 295 294 293
271 271 272 274 275 276 275 275 274 273 270 268 266 265 265 265 264 264 265 266 268 270 271 273 275 277 279 281 283 285 287 289 291 292 294 295 295 296 296 297 296 295 294 294
271 272 273 275 276 277 276 276 276 274 272 270 268 267 266 266 265 264 264 265 267 270 272 274 276 278 279 282 284 285 287 289 290 292 294 295 295 296 296 296 296 296 296 295
Height
5661 5659 5658 5658 5657 5656 5655 5654 5654 5653 5652 5651 5650 5649 5649 5649 5648 5648 5648 5648 5649 5649 5650 5650 5650 5651 5652 5652 5652 5652 5652 5652 5652 5652 5652 5651 5651 5650 5649 5649 5648 5648 5647 5646
5660 5659 5658 5657 5656 5655 5654 5653 5653 5652 5651 5650 5649 5648 5648 5648 5647 5647 5646 5647 5647 5647 5648 5648 5649 5649 5649 5650 5650 5649 5649 5649 5648 5648 5647 5647 5646 5645 5644 5642 5642 5641 5640 5638
5660 5658 5657 5657 5655 5654 5653 5652 5652 5651 5651 5649 5648 5647 5647 5646 5646 5645 5645 5645 5645 5645 5646 5646 5647 5647 5647 5647 5647 5647 5647 5646 5645 5644 5643 5642 5641 5640 5638 5637 5635 5634 5632 5629
5658 5658 5656 5657 5654 5652 5651 5651 5650 5649 5648 5648 5647 5646 5645 5644 5644 5644 5643 5643 5643 5643 5644 5644 5644 5645 5645 5645 5645 5644 5644 5643 5642 5641 5639 5638 5636 5634 5632 5630 5628 5626 5624 5621
5656 5654 5654 5654 5652 5650 5649 5649 5648 5647 5646 5646 5645 5644 5644 5643 5642 5642 5641 5641 5641 5641 5641 5642 5642 5642 5642 5642 5642 5641 5640 5639 5638 5637 5636 5634 5631 5629 5627 5624 5622 5619 5616 5613
5652 5651 5651 5652 5649 5647 5648 5646 5645 5644 5644 5643 5642 5643 5643 5641 5640 5640 5640 5639 5639 5639 5639 5639 5639 5639 5639 5639 5638 5638 5637 5635 5634 5633 5631 5629 5627 5624 5621 5618 5615 5612 5609 5605
5648 5647 5647 5647 5645 5645 5645 5645 5642 5641 5641 5640 5639 5639 5639 5638 5637 5637 5637 5637 5636 5636 5636 5636 5635 5635 5635 5635 5634 5634 5632 5631 5630 5628 5626 5624 5622 5619 5616 5613 5609 5606 5602 5598
5643 5642 5644 5641 5640 5640 5640 5639 5638 5637 5637 5636 5636 5635 5635 5634 5634 5633 5633 5633 5633 5632 5632 5632 5631 5631 5631 5630 5629 5628 5627 5626 5624 5623 5621 5619 5616 5613 5609 5606 5603 5599 5595 5591
5638 5639 5637 5635 5635 5635 5634 5634 5633 5633 5632 5632 5631 5631 5630 5630 5630 5629 5629 5628 5628 5628 5627 5627 5626 5626 5625 5625 5624 5623 5622 5620 5618 5617 5614 5612 5609 5606 5602 5599 5595 5592 5588 5584
5632 5631 5630 5629 5628 5628 5628 5628 5628 5627 5627 5627 5626 5626 5625 5625 5625 5624 5624 5623 5623 5622 5622 5622 5621 5620 5620 5619 5618 5617 5616 5614 5612 5610 5607 5605 5602 5598 5595 5591 5587 5583 5579 5575
5624 5624 5622 5622 5621 5621 5621 5621 5621 5621 5621 5621 5620 5620 5620 5619 5619 5619 5618 5618 5617 5617 5616 5616 5615 5614 5613 5612 5611 5610 5609 5607 5605 5602 5600 5597 5594 5590 5587 5583 5578 5574 5570 5566
5616 5616 5614 5615 5614 5613 5613 5614 5614 5614 5614 5614 5614 5614 5613 5613 5613 5612 5612 5611 5611 5610 5610 5609 5608 5607 5606 5605 5604 5603 5601 5599 5597 5594 5591 5589 5585 5582 5578 5574 5569 5565 5560 5556
5606 5605 5605 5606 5605 5605 5605 5605 5606 5606 5606 5606 5606 5606 5606 5606 5605 5605 5605 5604 5604 5603 5603 5602 5601 5600 5599 5598 5596 5595 5593 5591 5588 5586 5583 5579 5576 5573 5569 5565 5560 5555 5551 5546
5595 5595 5596 5596 5596 5596 5596 5596 5597 5597 5597 5598 5598 5598 5598 5597 5597 5597 5597 5596 5596 5595 5595 5594 5593 5592 5590 5589 5588 5586 5584 5582 5579 5576 5574 5570 5567 5563 5559 5555 5550 5545 5541 5536
5585 5585 5585 5586 5586 5586 5586 5586 5587 5588 5588 5588 5588 5588 5588 5588 5588 5588 5588 5587 5587 5587 5586 5585 5584 5583 5582 5580 5579 5577 5575 5572 5570 5567 5564 5561 5557 5553 5549 5544 5540 5535 5530 5526
5574 5573 5573 5574 5575 5575 5575 5575 5576 5577 5577 5578 5578 5578 5578 5579 5579 5578 5578 5578 5578 5577 5577 5576 5575 5574 5572 5571 5569 5567 5564 5562 5559 5557 5554 5550 5546 5542 5538 5534 5529 5524 5520 5515
5563 5562 5562 5563 5563 5563 5563 5563 5564 5565 5565 5566 5567 5567 5568 5568 5568 5568 5568 5568 5568 5568 5567 5566 5565 5563 5562 5560 5558 5556 5554 5551 5549 5546 5543 5539 5535 5531 5527 5522 5518 5513 5509 5505
5551 5551 5551 5551 5551 5550 5551 5551 5552 5553 5553 5554 5555 5555 5556 5557 5557 5557 5557 5557 5557 5557 5556 5555 5554 5553 5551 5549 5547 5545 5543 5540 5537 5534 5531 5527 5523 5519 5515 5510 5506 5501 5497 5493
5539 5539 5538 5538 5538 5538 5538 5538 5539 5540 5541 5541 5542 5543 5544 5544 5545 5545 5545 5546 5546 5545 5545 5543 5542 5541 5539 5537 5535 5533 5531 5528 5525 5522 5518 5515 5511 5507 5502 5498 5493 5489 5485 5481
5528 5527 5526 5526 5525 5525 5525 5525 5526 5527 5528 5528 5529 5530 5531 5531 5532 5532 5533 5533 5533 5533 5532 5531 5530 5529 5527 5525 5523 5521 5518 5515 5513 5509 5506 5502 5498 5494 5489 5485 5481 5477 5473 5469
5516 5516 5515 5514 5514 5513 5513 5513 5513 5514 5514 5515 5516 5517 5517 5518 5518 5519 5520 5520 5520 5519 5519 5518 5517 5516 5514 5512 5510 5508 5505 5502 5499 5496 5493 5489 5485 5480 5476 5472 5468 5464 5460 5456
5504 5504 5503 5502 5502 5501 5501 5501 5501 5501 5501 5502 5503 5503 5504 5504 5505 5506 5506 5507 5506 5506 5505 5504 5503 5502 5500 5498 5496 5494 5491 5489 5486 5482 5479 5475 5471 5467 5462 5458 5454 5450 5446 5443
5492 5491 5491 5490 5490 5489 5489 5489 5488 5488 5488 5489 5489 5489 5490 5490 5491 5492 5493 5493 5492 5492 5491 5491 5490 5488 5487 5485 5483 5480 5478 5475 5471 5468 5465 5461 5457 5452 5448 5444 5440 5436 5433 5429
5480 5479 5479 5478 5478 5477 5476 5476 5475 5475 5475 5475 5475 5475 5476 5476 5477 5478 5478 5478 5478 5478 5478 5477 5476 5474 5473 5471 5469 5467 5464 5461 5458 5454 5451 5447 5443 5439 5434 5430 5427 5423 5419 5416
5467 5467 5467 5466 5465 5464 5464 5463 5462 5462 5461 5461 5461 5461 5462 5462 5463 5464 5464 5464 5464 5464 5463 5463 5462 5460 5459 5457 5455 5453 5450 5447 5444 5441 5437 5433 5430 5426 5422 5418 5414 5410 5407 5404
5455 5455 5454 5454 5453 5452 5451 5450 5449 5448 5448 5448 5448 5448 5448 5449 5449 5450 5450 5450 5450 5450 5450 5449 5448 5447 5445 5444 5442 5439 5437 5434 5431 5428 5424 5420 5417 5413 5409 5406 5402 5398 5395 5392
5443 5442 5442 5441 5440 5439 5438 5437 5436 5436 5435 5434 5434 5435 5435 5435 5436 5436 5437 5437 5437 5437 5436 5436 5435 5434 5432 5430 5428 5426 5424 5421 5418 5415 5412 5408 5405 5401 5397 5394 5390 5387 5384 5380